Weather History for Tehachapi, CA

Change the Weather History Date:

Friday, February 8, 2013

  Actual Average Record
Temperature  
Mean Temperature 32 °F -  
Max Temperature 35 °F 53 °F 57 °F (2012)
Min Temperature 30 °F 32 °F 28 °F (2012)
Degree Days  
Heating Degree Days 32    
Moisture  
Dew Point 30 °F    
Average Humidity 92    
Maximum Humidity 100    
Minimum Humidity 80    
Precipitation  
Precipitation 0.95 in - - ()
Sea Level Pressure  
Sea Level Pressure 29.84 in    
Wind  
Wind Speed 14 mph (WNW)    
Max Wind Speed 20 mph    
Max Gust Speed 29 mph    
Visibility 6 miles    
Events Rain , Snow    
Averages and records for this station are not official NWS values.
T = Trace of Precipitation, MM = Missing Value Source: NWS Daily Summary

Daily Weather History Graph

Daily Weather History Graph

Search for Another Location

Airport:

Trip Planner

Search our weather history database for the weather conditions in past years. The results will help you decide how hot, cold, wet, or windy it might be!

Date:

Astronomy

Feb. 08, 2013 Rise Set
Actual Time 6:46 AM PST 5:29 PM PST
Civil Twilight 6:20 AM PST 5:56 PM PST
Nautical Twilight 5:50 AM PST 6:26 PM PST
Astronomical Twilight 5:20 AM PST 6:55 PM PST
Moon 5:17 AM PST (2/8) 4:09 PM PST (2/8)
Length of Visible Light 11h 35m
Length of Day
10h 43m
Waning Crescent, 3% of the Moon is Illuminated
Feb 8
Waning Crescent
Feb 9
New
Feb 17
First Quarter
Feb 25
Full
Mar 4
Last Quarter

Hourly Weather History & Observations

Time (PST) Temp. Windchill Dew Point Humidity Pressure Visibility Wind Dir Wind Speed Gust Speed Precip Events Conditions
12:15 AM 33.8 °F 24.8 °F 32.0 °F 93% 29.90 in 3.0 mi NW 12.7 mph - N/A Rain Light Rain
12:35 AM - - - N/A% 29.88 in - NW 12.7 mph - N/A Rain Light Rain
12:55 AM 32.0 °F 21.2 °F 32.0 °F 100% 29.89 in 0.8 mi WNW 16.1 mph - 0.11 in Rain Heavy Rain
1:15 AM 32.0 °F 22.5 °F 32.0 °F 100% 29.89 in 3.0 mi West 12.7 mph - N/A Rain Light Rain
1:35 AM - - - N/A% - - North - - N/A   Unknown
1:55 AM 32.0 °F 22.1 °F 32.0 °F 100% 29.88 in 4.0 mi WNW 13.8 mph 20.7 mph N/A Rain Light Rain
2:15 AM 32.0 °F 22.5 °F 32.0 °F 100% 29.87 in 2.0 mi West 12.7 mph - N/A Snow Light Snow
2:35 AM 32.0 °F 20.8 °F 32.0 °F 100% 29.87 in 1.5 mi WNW 17.3 mph 25.3 mph 0.07 in Rain Light Rain
2:55 AM 32.0 °F 20.5 °F 28.4 °F 87% 29.86 in 3.0 mi WNW 18.4 mph 28.8 mph 0.12 in Rain Light Rain
3:15 AM 32.0 °F 20.1 °F 28.4 °F 87% 29.85 in 5.0 mi West 19.6 mph 25.3 mph 0.02 in Rain Light Rain
3:35 AM 32.0 °F 20.1 °F 28.4 °F 87% 29.85 in 2.0 mi West 19.6 mph 24.2 mph 0.12 in Rain Rain
3:55 AM 32.0 °F 20.8 °F 28.4 °F 87% 29.85 in 7.0 mi WNW 17.3 mph 28.8 mph 0.15 in Rain Light Rain
4:15 AM 32.0 °F 21.6 °F 28.4 °F 87% 29.85 in 1.2 mi WNW 15.0 mph - 0.04 in Snow Light Snow
4:35 AM 32.0 °F 20.1 °F 30.2 °F 93% 29.84 in 3.0 mi WNW 19.6 mph 25.3 mph 0.06 in Rain Light Rain
4:55 AM 32.0 °F 20.5 °F 30.2 °F 93% 29.84 in 5.0 mi NW 18.4 mph 23.0 mph 0.10 in Rain Light Rain
5:15 AM 32.0 °F 21.2 °F 30.2 °F 93% 29.84 in 5.0 mi NW 16.1 mph 24.2 mph N/A Rain Light Rain
5:35 AM 30.2 °F 18.9 °F 30.2 °F 100% 29.84 in 7.0 mi WNW 16.1 mph 23.0 mph N/A Rain Light Freezing Rain
5:55 AM 32.0 °F 20.8 °F 30.2 °F 93% 29.84 in 2.0 mi WNW 17.3 mph 23.0 mph 0.02 in   Overcast
6:15 AM 32.0 °F 23.0 °F 30.2 °F 93% 29.84 in 7.0 mi WNW 11.5 mph - N/A Rain Light Rain
6:35 AM 32.0 °F 24.2 °F 30.2 °F 93% 29.84 in 5.0 mi WNW 9.2 mph - N/A Rain Light Rain
6:55 AM 32.0 °F 24.2 °F 32.0 °F 100% 29.84 in 0.5 mi WNW 9.2 mph - 0.04 in Snow Snow
7:15 AM 30.2 °F 20.8 °F 30.2 °F 100% 29.84 in 0.5 mi WNW 11.5 mph - 0.06 in Snow Snow
7:55 AM 32.0 °F 23.6 °F 32.0 °F 100% 29.84 in 9.0 mi WNW 10.4 mph - 0.07 in   Overcast
8:15 AM 32.0 °F 21.6 °F 28.4 °F 87% 29.84 in 1.8 mi West 15.0 mph - N/A Snow Light Snow
8:35 AM 32.0 °F 21.2 °F 30.2 °F 93% 29.85 in 1.8 mi West 16.1 mph 21.9 mph N/A Rain Light Rain
8:55 AM 32.0 °F 22.5 °F 32.0 °F 100% 29.85 in 1.5 mi West 12.7 mph - 0.01 in Rain Light Rain
9:15 AM 32.0 °F 21.6 °F 30.2 °F 93% 29.85 in 1.0 mi West 15.0 mph 19.6 mph N/A Snow Light Snow
9:35 AM 32.0 °F 21.6 °F 30.2 °F 93% 29.85 in 3.0 mi West 15.0 mph - 0.01 in Rain Light Rain
9:55 AM 32.0 °F 21.2 °F 30.2 °F 93% 29.85 in 5.0 mi West 16.1 mph - 0.01 in Rain Light Rain
10:15 AM - - - N/A% - - North - - N/A   Unknown
10:35 AM 35.6 °F 27.5 °F 32.0 °F 87% 29.85 in 5.0 mi West 11.5 mph - N/A Rain Light Rain
10:55 AM 33.8 °F 23.9 °F 30.2 °F 87% 29.85 in 10.0 mi WSW 15.0 mph - N/A   Overcast
11:15 AM 35.6 °F 26.6 °F 30.2 °F 81% 29.84 in 10.0 mi WSW 13.8 mph - N/A   Overcast
11:35 AM 33.8 °F 23.5 °F 30.2 °F 87% 29.83 in 6.0 mi WSW 16.1 mph - N/A Rain Light Rain
11:55 AM 32.0 °F 22.1 °F 30.2 °F 93% 29.82 in 0.8 mi West 13.8 mph - 0.05 in Rain Rain
12:15 PM - - - N/A% - - North - - N/A   Unknown
12:35 PM 33.8 °F 23.2 °F 32.0 °F 93% 29.80 in 6.0 mi NW 17.3 mph 20.7 mph N/A Rain Light Rain
12:55 PM - - - N/A% - - North - - N/A   Unknown
1:15 PM 33.8 °F 25.3 °F 32.0 °F 93% 29.80 in 10.0 mi NW 11.5 mph - N/A   Unknown
1:35 PM 33.8 °F 25.3 °F 32.0 °F 93% 29.79 in 10.0 mi NW 11.5 mph - N/A   Overcast
1:55 PM 35.6 °F 28.0 °F 30.2 °F 81% 29.78 in 10.0 mi NW 10.4 mph - N/A   Overcast
2:15 PM 32.0 °F 20.5 °F 28.4 °F 87% 29.79 in 0.8 mi NW 18.4 mph 24.2 mph 0.07 in Rain Light Rain
2:35 PM 32.0 °F 24.8 °F 28.4 °F 87% 29.79 in 1.5 mi WNW 8.1 mph - 0.17 in Snow Light Snow
2:55 PM 32.0 °F 24.2 °F 30.2 °F 93% 29.78 in 10.0 mi WNW 9.2 mph - 0.17 in   Mostly Cloudy
3:15 PM 32.0 °F 21.2 °F 32.0 °F 100% 29.79 in 3.0 mi NW 16.1 mph 19.6 mph 0.02 in Rain Light Rain
3:35 PM 32.0 °F 23.0 °F 32.0 °F 100% 29.79 in 6.0 mi NW 11.5 mph 18.4 mph 0.03 in Rain Light Rain
3:55 PM 32.0 °F 21.6 °F 32.0 °F 100% 29.78 in 8.0 mi NW 15.0 mph - 0.03 in   Mostly Cloudy
4:15 PM 32.0 °F 21.2 °F 30.2 °F 93% 29.79 in 7.0 mi NW 16.1 mph 23.0 mph 0.02 in Rain Light Rain
4:55 PM 32.0 °F 21.2 °F 28.4 °F 87% 29.80 in 10.0 mi NW 16.1 mph 21.9 mph 0.02 in   Overcast
5:15 PM 32.0 °F 21.6 °F 26.6 °F 80% 29.80 in 10.0 mi NW 15.0 mph 20.7 mph N/A   Mostly Cloudy
5:35 PM 32.0 °F 21.2 °F 28.4 °F 87% 29.81 in 10.0 mi WNW 16.1 mph 21.9 mph N/A   Overcast
5:55 PM 32.0 °F 22.1 °F 28.4 °F 87% 29.81 in 10.0 mi WNW 13.8 mph - N/A   Overcast
6:15 PM 32.0 °F 21.6 °F 28.4 °F 87% 29.82 in 10.0 mi WNW 15.0 mph 20.7 mph N/A   Overcast
6:35 PM 32.0 °F 22.1 °F 28.4 °F 87% 29.82 in 10.0 mi WNW 13.8 mph - N/A   Overcast
6:55 PM 32.0 °F 22.5 °F 30.2 °F 93% 29.83 in 10.0 mi WNW 12.7 mph - N/A   Overcast
7:15 PM 32.0 °F 24.2 °F 30.2 °F 93% 29.83 in 10.0 mi WNW 9.2 mph - N/A   Overcast
7:35 PM 32.0 °F 23.0 °F 30.2 °F 93% 29.83 in 10.0 mi West 11.5 mph - N/A   Overcast
7:55 PM 32.0 °F 21.6 °F 28.4 °F 87% 29.84 in 10.0 mi WNW 15.0 mph 18.4 mph N/A   Overcast
8:15 PM 32.0 °F 22.5 °F 28.4 °F 87% 29.84 in 10.0 mi WNW 12.7 mph 19.6 mph N/A   Overcast
8:35 PM 32.0 °F 22.1 °F 28.4 °F 87% 29.85 in 10.0 mi WNW 13.8 mph 20.7 mph N/A   Overcast
8:55 PM 32.0 °F 23.0 °F 28.4 °F 87% 29.85 in 10.0 mi WNW 11.5 mph - N/A   Overcast
9:15 PM 32.0 °F 22.1 °F 28.4 °F 87% 29.85 in 10.0 mi WNW 13.8 mph - N/A   Overcast
9:35 PM 32.0 °F 21.2 °F 28.4 °F 87% 29.85 in 10.0 mi WNW 16.1 mph - N/A   Overcast
9:55 PM 32.0 °F 22.5 °F 30.2 °F 93% 29.85 in 6.0 mi WNW 12.7 mph - N/A   Overcast
10:15 PM 32.0 °F 22.5 °F 30.2 °F 93% 29.85 in 3.0 mi NW 12.7 mph - N/A Rain Light Rain
10:55 PM 30.2 °F 18.5 °F 30.2 °F 100% 29.86 in 4.0 mi WNW 17.3 mph 21.9 mph 0.03 in Rain Light Freezing Rain
11:15 PM 30.2 °F 20.8 °F 30.2 °F 100% 29.86 in 3.0 mi NW 11.5 mph 18.4 mph 0.02 in Rain Light Freezing Rain
11:35 PM 30.2 °F 21.3 °F 30.2 °F 100% 29.86 in 5.0 mi NW 10.4 mph - 0.02 in   Overcast
11:55 PM 30.2 °F 20.8 °F 30.2 °F 100% 29.86 in 7.0 mi WNW 11.5 mph - 0.02 in   Overcast